GEFSSE_con_cape1000_000.txt.gz
Probability
0 52 100 100 100 100 100 100 100 100 100 100 100 100 100 94 97 97 97 100 100 100 100 100 100 90 90 100 100 100 100 100 100 100 100 100 100 100 100 94 94 100 100
0 94 100 100 100 100 100 100 100 100 100 100 100 100 97 94 94 84 100 100 100 100 100 100 97 90 84 94 100 100 100 100 100 100 100 100 100 100 94 58 97 100 100
45 100 100 100 100 100 100 100 100 100 100 100 97 100 97 97 90 100 100 100 100 100 100 100 97 90 68 90 100 100 100 100 100 100 100 100 100 100 100 100 100 100 100
84 100 100 100 100 100 100 100 100 100 100 100 100 100 100 100 100 100 100 100 100 100 100 100 90 71 39 94 100 100 100 100 100 90 35 52 100 100 100 100 100 100 100
84 100 100 100 100 100 100 100 100 100 100 100 100 100 100 100 100 100 100 100 100 100 100 97 81 42 26 65 90 100 100 100 32 10 3 32 100 100 100 100 100 100 100
94 100 100 100 100 100 100 100 100 100 100 100 100 100 100 100 100 100 100 100 100 100 100 90 55 0 0 13 84 100 100 100 74 13 13 65 100 100 100 100 100 100 100
48 94 100 100 100 100 100 100 100 100 100 100 100 100 100 100 100 100 100 100 100 100 100 48 3 0 0 39 97 100 100 100 71 45 29 81 100 100 100 100 100 100 100
26 94 100 100 100 100 100 100 100 100 100 100 100 100 100 100 100 100 100 100 100 100 52 6 0 10 45 90 100 100 100 100 65 52 58 84 100 100 100 100 100 100 100
16 81 100 100 100 100 100 100 100 100 100 100 100 100 100 100 100 100 100 100 100 100 13 0 10 23 35 90 100 100 100 97 19 45 94 84 100 100 100 100 100 100 100
3 55 84 87 90 100 100 100 100 100 100 100 100 100 100 100 100 100 100 100 100 100 19 0 6 13 42 97 100 97 97 45 19 55 97 100 100 94 97 100 97 100 100
0 10 45 16 48 39 97 100 100 100 100 100 100 100 100 97 94 100 100 100 100 100 61 0 6 32 42 26 97 87 13 0 16 61 100 100 100 100 97 97 100 100 100
6 3 10 19 23 19 71 87 77 97 94 97 90 100 90 55 87 100 100 100 100 97 94 39 13 32 0 0 0 0 0 0 29 90 100 100 100 100 100 100 100 100 100
0 6 6 6 19 13 6 3 16 16 13 52 26 58 68 32 97 100 100 100 100 100 94 97 55 0 0 0 0 0 0 0 23 84 100 100 100 100 100 100 100 100 100
0 3 6 3 13 3 3 3 3 0 10 16 19 58 29 0 3 39 23 65 87 87 35 0 0 0 0 0 0 0 0 0 16 48 97 100 100 100 100 100 100 100 100
0 3 3 13 10 0 3 3 0 0 6 6 3 45 0 0 0 0 0 0 0 0 0 0 0 0 0 0 0 0 0 0 0 6 23 100 100 100 100 100 100 100 100
0 0 0 13 10 0 3 0 0 0 0 0 0 0 0 0 0 0 0 0 0 0 0 0 0 0 0 0 0 0 0 0 0 0 0 16 100 100 100 100 100 100 100
0 0 0 0 0 0 3 0 0 0 0 0 0 0 0 0 0 0 0 0 0 0 0 0 0 0 0 0 0 0 0 0 0 0 0 0 0 3 74 90 90 90 97
0 0 0 0 0 0 0 3 0 0 0 0 0 0 0 0 0 0 0 0 0 0 0 0 0 0 0 0 0 0 0 0 0 0 0 0 0 0 0 0 0 3 84
3 0 0 0 0 0 0 0 3 0 0 0 0 0 0 0 0 0 0 0 0 0 0 0 0 0 0 0 0 0 0 0 0 0 0 0 0 0 0 0 0 0 0
0 0 0 0 0 0 0 0 0 0 0 0 0 0 0 0 0 0 0 0 0 0 0 0 0 0 0 0 0 0 0 0 0 0 0 0 0 0 0 0 0 0 0
0 0 0 0 0 0 0 0 0 0 0 0 0 0 0 0 0 0 0 0 0 0 0 0 0 0 0 0 0 0 0 0 0 0 0 0 0 0 0 0 0 0 0
0 0 0 0 0 0 0 0 0 0 0 0 0 0 0 0 0 0 0 0 0 0 0 0 0 0 0 0 0 0 0 0 0 0 0 0 0 0 0 0 0 0 0
0 0 0 0 0 0 0 0 0 0 0 0 0 0 0 0 0 0 0 0 0 0 0 0 0 0 0 0 0 0 0 0 0 0 0 0 0 0 0 0 0 0 0
0 0 0 0 0 0 0 0 0 0 0 0 0 0 0 0 0 0 0 0 0 0 0 0 0 0 0 0 0 0 0 0 0 0 0 0 0 0 0 0 0 0 0
0 0 0 0 0 0 0 0 0 0 0 0 0 0 0 0 0 0 0 0 0 0 0 0 0 0 0 0 0 0 0 0 0 0 0 0 0 0 0 0 0 0 0
0 0 0 0 0 0 0 0 0 0 0 0 0 0 0 0 0 0 0 0 0 0 0 0 0 0 0 0 0 0 0 0 0 0 0 0 0 0 0 0 0 0 0

GEFSSE_con_cape1000_006.txt.gz
Probability
0 0 100 100 100 97 100 100 100 100 100 100 97 74 97 100 100 100 100 100 81 74 87 100 100 100 100 100 100 100 100 100 100 100 100 100 100 100 100 100 97 94 100
0 0 100 100 100 100 100 100 100 100 100 100 100 97 94 100 100 100 100 100 100 90 94 100 100 100 100 100 100 100 100 100 100 100 100 100 100 100 97 100 100 97 100
0 55 100 100 100 100 100 100 100 100 100 100 100 97 94 94 100 100 100 100 100 100 100 100 97 100 100 100 100 100 100 100 100 100 100 100 100 100 100 100 100 100 100
0 90 100 100 100 100 100 100 100 100 100 100 100 97 90 97 100 100 100 100 100 100 94 74 87 97 100 100 100 100 100 100 100 100 74 97 100 100 100 100 100 100 100
13 97 100 100 100 100 100 100 100 100 100 100 100 100 94 100 100 100 100 100 100 94 81 45 45 87 97 100 100 100 90 100 100 77 48 87 100 100 100 100 100 100 100
55 90 100 100 100 100 100 100 100 100 100 100 100 100 100 100 100 100 100 100 100 90 58 3 10 61 87 100 100 100 100 100 65 16 35 100 100 100 100 100 100 100 100
35 97 100 100 100 100 100 100 100 100 100 100 100 100 100 100 100 100 100 100 100 61 0 0 16 74 97 100 100 100 100 100 16 13 29 90 100 100 100 100 100 100 100
13 97 100 100 100 100 100 100 100 100 100 100 100 100 100 100 100 100 100 100 90 6 0 10 61 100 100 100 100 100 100 100 61 19 13 58 100 100 100 100 100 100 100
10 81 100 100 100 100 100 100 100 100 100 100 100 100 100 100 100 100 100 100 16 0 16 52 87 97 100 100 100 100 100 100 6 16 39 16 77 90 90 97 100 100 100
3 16 48 87 97 100 100 100 100 100 100 100 100 100 100 100 100 100 100 77 0 3 23 87 100 100 100 100 100 90 90 48 6 23 32 71 48 52 68 90 94 100 100
0 6 10 16 16 35 84 100 100 100 100 100 100 100 100 61 97 100 100 84 0 0 48 94 97 97 97 90 84 84 19 3 10 39 42 100 77 45 74 94 100 100 100
0 3 3 0 0 3 35 42 23 87 94 61 48 52 0 0 13 90 100 94 13 10 81 84 45 48 0 0 6 6 3 13 26 42 81 100 100 94 97 97 100 100 100
0 3 3 0 0 0 0 0 3 0 10 3 3 0 0 0 29 35 29 26 3 0 0 0 0 0 0 0 0 0 3 16 19 6 58 100 100 100 100 100 100 97 100
0 0 6 0 0 0 0 0 0 0 0 0 0 0 0 0 3 6 6 6 0 0 0 0 0 0 0 0 0 0 0 0 0 3 48 100 100 100 100 100 100 100 100
0 0 0 0 0 0 0 0 0 0 3 0 0 0 0 0 3 0 0 0 0 0 0 0 0 0 0 0 0 0 0 0 0 0 6 100 100 100 100 100 100 100 100
0 0 0 0 0 0 0 0 0 0 0 0 0 0 0 0 0 0 0 0 0 0 0 0 0 0 0 0 0 0 0 0 0 0 0 0 87 100 100 100 97 97 97
0 0 0 0 0 0 0 0 0 0 0 0 0 0 0 0 0 0 0 0 0 0 0 0 0 0 0 0 0 0 0 0 0 0 0 0 0 0 52 94 94 87 77
0 0 0 6 0 0 0 0 0 0 0 0 0 0 0 0 0 0 0 0 0 0 0 0 0 0 0 0 0 0 0 0 0 0 0 0 0 0 0 0 3 10 45
0 0 0 0 0 0 0 0 0 0 0 0 0 0 0 0 0 0 0 0 0 0 0 0 0 0 0 0 0 0 0 0 0 0 0 0 0 0 0 0 0 0 0
0 0 0 0 0 0 0 0 0 0 0 0 0 0 0 0 0 0 0 0 0 0 0 0 0 0 0 0 0 0 0 0 0 0 0 0 0 0 0 0 0 0 0
0 0 0 0 0 0 0 0 0 0 0 0 0 0 0 0 0 0 0 0 0 0 0 0 0 0 0 0 0 0 0 0 0 0 0 0 0 0 0 0 0 0 0
0 0 0 0 0 0 0 0 0 0 0 0 0 0 0 0 0 0 0 0 0 0 0 0 0 0 0 0 0 0 0 0 0 0 0 0 0 0 0 0 0 0 0
0 0 0 0 0 0 0 0 0 0 0 0 0 0 0 0 0 0 0 0 0 0 0 0 0 0 0 0 0 0 0 0 0 0 0 0 0 0 0 0 0 0 0
0 0 0 0 0 0 0 0 0 0 0 0 0 0 0 0 0 0 0 0 0 0 0 0 0 0 0 0 0 0 0 0 0 0 0 0 0 0 0 0 0 0 0
0 0 0 0 0 0 0 0 0 0 0 0 0 0 0 0 0 0 0 0 0 0 0 0 0 0 0 0 0 0 0 0 0 0 0 0 0 0 0 0 0 0 0
0 0 0 0 0 0 0 0 0 0 0 0 0 0 0 0 0 0 0 0 0 0 0 0 0 0 0 0 0 0 0 0 0 0 0 0 0 0 0 0 0 0 0

GEFSSE_con_cape1000_012.txt.gz
Probability
0 10 100 100 100 100 100 100 100 100 100 100 100 100 100 100 100 100 90 61 61 58 71 74 81 81 90 94 100 100 100 100 100 100 100 100 100 97 100 97 94 94 97
0 6 100 100 100 100 100 100 100 100 100 100 100 100 100 100 100 100 94 65 52 58 68 81 87 87 87 94 100 100 100 100 100 100 100 100 100 100 97 97 97 94 100
0 19 100 100 100 100 100 97 100 100 100 100 97 100 97 97 100 100 97 87 68 68 77 84 84 81 90 90 100 100 100 100 100 100 100 100 100 100 100 100 100 100 100
3 16 87 100 100 100 100 97 97 100 100 100 97 94 90 97 100 100 100 81 68 61 74 81 81 81 90 97 100 100 100 100 100 100 100 100 100 100 100 100 100 97 97
0 3 100 100 100 100 100 100 100 100 100 100 94 90 94 100 100 100 97 84 77 23 55 77 87 90 97 100 100 100 100 100 100 100 100 100 100 100 100 100 100 100 100
0 6 100 100 100 100 100 100 100 100 100 100 94 94 97 100 100 97 97 84 68 13 26 68 87 100 100 100 100 100 100 97 90 97 100 100 100 100 100 100 100 100 100
0 16 94 100 100 100 100 100 100 100 100 100 100 97 100 100 100 97 90 81 29 0 10 65 90 100 100 97 100 100 94 81 45 87 97 100 100 100 100 100 100 100 100
0 16 68 100 100 100 100 100 100 100 100 100 100 100 100 100 100 100 94 58 0 3 48 94 100 100 100 100 97 100 100 65 19 19 84 100 100 100 100 100 100 100 100
0 19 71 97 81 94 100 100 100 100 100 100 100 100 100 97 100 100 77 19 13 32 87 97 100 100 100 97 94 100 100 90 13 16 10 77 87 90 100 100 100 100 100
3 3 58 74 68 39 42 100 100 100 100 100 100 100 100 100 100 84 26 23 48 61 90 97 100 100 87 81 87 97 87 87 10 6 13 35 35 58 90 94 100 100 100
6 10 13 35 61 77 84 84 100 100 100 97 97 100 97 94 48 26 0 55 74 84 94 97 90 74 45 58 77 81 77 6 23 48 97 74 23 32 74 90 94 100 100
13 3 0 3 26 77 90 100 100 97 97 45 58 58 35 26 6 0 0 65 84 81 90 97 68 10 0 0 3 58 29 23 10 65 100 100 71 61 68 87 90 100 100
3 13 6 0 3 45 97 97 100 100 100 19 3 0 3 6 6 0 0 42 68 23 3 52 13 0 0 0 0 10 58 45 32 35 97 97 97 97 97 97 97 97 100
10 19 13 0 0 3 58 68 81 97 100 71 6 0 3 3 6 0 13 10 16 3 0 0 3 0 0 0 0 3 23 58 81 97 100 97 94 94 100 100 100 100 100
10 39 32 13 0 6 45 74 61 77 81 74 74 6 0 0 0 3 0 13 0 0 0 0 0 0 0 0 0 0 19 35 84 100 100 100 100 100 100 100 100 100 100
16 48 77 74 32 39 87 87 55 71 100 55 74 13 0 0 0 0 0 0 0 0 0 0 0 0 0 0 0 0 3 10 19 48 97 100 100 100 100 100 100 97 87
26 68 81 97 90 77 48 42 52 77 81 68 65 0 0 0 0 0 0 0 0 0 0 0 0 0 0 0 0 0 0 0 3 0 13 39 58 58 71 97 100 97 87
26 84 100 97 100 97 97 94 68 68 74 97 74 32 0 0 0 0 0 0 0 0 0 0 0 0 0 0 0 0 0 0 0 0 0 0 0 0 0 0 6 58 74
35 84 94 100 100 100 100 97 94 68 90 97 94 81 58 0 0 0 0 3 0 0 6 0 0 0 0 0 0 0 0 0 0 0 0 0 0 0 0 0 0 0 3
42 52 87 94 97 100 100 100 100 97 94 100 100 100 81 23 0 0 3 0 3 39 55 3 6 0 0 0 0 0 0 0 0 0 0 0 0 0 0 0 0 0 0
48 42 52 77 94 100 100 100 97 97 97 94 97 97 97 68 10 10 26 3 6 52 55 6 19 6 6 0 0 0 0 0 0 0 0 0 0 0 0 0 0 0 0
32 42 42 84 94 100 100 100 100 100 84 90 100 100 94 68 42 6 26 35 61 94 87 35 52 19 0 0 0 0 0 0 0 0 0 0 0 0 0 0 0 0 0
42 77 55 97 100 100 100 97 94 100 100 100 100 100 94 65 32 13 10 10 35 68 90 90 68 45 6 0 0 0 0 0 0 0 0 0 0 0 0 0 0 0 0
29 71 81 90 97 100 97 97 94 97 94 81 94 100 87 55 32 13 6 10 13 35 74 94 68 45 19 0 0 0 0 0 0 0 0 0 0 0 0 0 0 0 0
23 52 68 87 90 97 94 97 100 100 90 84 77 84 87 87 65 42 26 26 13 35 26 42 65 55 16 6 0 0 0 0 0 0 0 0 0 0 0 0 0 0 0
23 48 58 77 84 81 84 84 87 81 84 84 77 65 74 74 71 61 61 42 35 26 6 39 52 48 26 16 3 6 0 0 0 0 0 0 0 0 0 0 0 0 0

GEFSSE_con_cape1000_018.txt.gz
Probability
97 97 100 100 100 97 90 97 100 90 90 90 90 81 94 97 97 90 68 61 68 71 77 87 94 94 97 100 100 100 100 100 100 97 100 100 100 100 100 94 100 100 100
97 100 100 100 100 94 94 97 100 94 87 87 90 90 97 94 94 58 55 48 42 58 74 74 90 94 94 100 100 100 100 100 100 100 100 100 100 100 97 100 100 100 100
97 100 100 100 100 97 97 97 97 97 94 94 97 97 100 97 90 58 58 48 48 71 71 68 77 94 94 100 100 100 97 100 97 100 100 100 100 100 100 100 100 100 100
87 94 100 100 100 100 100 97 90 81 77 97 97 94 97 94 97 81 48 39 45 61 74 71 81 90 94 100 97 94 97 97 97 100 100 94 100 100 100 100 100 97 100
58 97 100 100 100 100 100 100 97 84 87 90 90 94 90 90 94 71 48 23 23 45 74 81 87 87 90 94 90 90 90 100 100 100 97 97 100 100 100 100 100 100 100
58 100 100 100 100 100 100 97 97 94 90 87 87 84 94 94 97 65 39 6 6 32 55 84 90 90 90 90 84 77 87 100 100 100 100 100 100 100 100 100 100 100 100
55 100 100 100 100 100 97 97 97 90 94 94 90 90 94 90 90 61 32 3 0 10 29 71 87 94 90 97 84 74 77 100 97 97 100 100 100 100 100 100 100 100 100
61 81 87 100 100 100 90 97 94 94 94 90 87 94 97 97 94 77 52 6 0 3 23 74 94 97 97 97 77 42 55 97 55 87 100 94 100 100 100 100 100 100 100
45 68 39 77 87 94 100 97 97 97 100 94 97 100 100 100 94 77 16 0 3 19 39 81 94 84 71 52 39 16 23 100 65 58 81 84 97 97 100 100 100 100 100
26 52 39 19 19 13 61 100 100 97 100 100 100 100 100 100 90 55 10 3 6 16 48 55 65 35 29 19 3 0 26 87 26 45 32 45 90 84 90 97 100 97 100
3 16 26 13 13 0 3 68 94 94 97 100 100 100 100 71 26 13 3 16 13 29 32 29 32 23 10 6 0 16 52 32 55 87 35 61 48 45 77 81 97 97 100
0 3 10 13 13 6 6 39 48 42 42 32 45 61 65 10 0 0 13 29 26 39 29 26 42 42 16 0 3 52 35 13 71 81 84 84 55 42 65 74 81 90 94
0 6 16 10 6 13 58 61 65 55 45 29 13 0 6 0 0 0 0 13 19 10 0 6 29 0 0 0 0 10 10 19 39 52 94 100 94 94 94 90 94 94 87
0 0 6 10 6 13 19 55 58 32 26 35 19 0 0 0 0 0 0 0 0 0 0 0 3 0 0 0 0 0 3 13 48 77 94 100 100 100 100 100 100 100 100
0 0 0 0 3 13 52 61 13 26 3 6 48 0 0 0 0 0 0 0 0 0 0 10 0 0 0 0 0 0 6 23 42 87 100 100 100 100 100 100 100 97 97
0 0 0 0 0 23 68 61 13 13 74 3 26 0 0 0 0 0 0 0 0 0 0 0 0 0 0 0 0 0 0 13 26 61 81 97 100 100 100 100 100 100 94
0 0 0 3 0 13 58 39 39 58 23 6 19 0 0 0 0 0 0 0 0 0 0 0 0 0 0 0 0 0 0 0 6 29 48 58 52 90 100 100 100 90 84
0 0 13 13 3 16 61 71 52 58 32 23 19 3 0 0 0 0 0 0 0 0 0 0 0 0 0 0 0 0 0 0 0 0 0 16 3 0 35 71 71 68 61
0 3 32 65 74 100 97 100 90 52 77 68 45 19 3 0 0 0 0 0 0 0 0 0 0 0 0 0 0 0 0 0 0 0 0 0 0 0 0 0 10 10 16
0 0 29 94 94 100 100 100 100 87 84 71 68 77 29 3 0 0 3 0 0 10 10 6 3 3 0 0 0 0 0 0 0 0 0 0 0 0 0 0 0 0 0
6 6 29 68 90 100 100 100 100 97 84 74 74 71 68 48 6 0 0 0 3 23 13 6 16 0 0 0 0 0 0 0 0 0 0 0 0 0 0 0 0 0 0
16 16 23 32 61 90 100 100 100 100 100 97 77 77 81 52 16 3 13 13 42 42 19 3 16 0 0 0 0 0 0 0 0 0 0 0 0 0 0 0 0 0 0
29 29 10 39 74 97 100 100 100 100 100 94 87 94 87 74 39 29 10 13 13 32 19 16 10 0 0 0 0 0 0 0 0 0 0 0 0 0 0 0 0 0 0
29 23 35 58 61 100 100 100 100 97 94 84 81 94 94 94 74 55 29 16 3 13 16 13 6 3 0 0 0 0 0 0 0 0 0 0 0 0 0 0 0 0 0
26 35 55 68 68 90 100 100 100 100 100 97 94 97 94 97 90 87 45 23 3 0 6 3 0 3 0 0 0 0 0 0 0 0 0 0 0 0 0 0 0 0 0
74 68 68 81 97 94 94 94 97 100 97 94 87 74 90 100 100 90 77 45 23 0 0 3 0 6 0 0 0 0 0 0 0 0 0 0 0 0 0 0 0 0 0

GEFSSE_con_cape1000_024.txt.gz
Probability
3 58 100 100 100 100 100 100 100 100 100 100 100 100 100 97 94 90 84 90 94 100 100 100 100 100 100 100 100 100 100 97 94 94 90 94 90 87 97 100 100 100 97
10 97 100 100 100 100 100 100 100 100 100 100 100 100 97 94 71 61 68 71 81 81 100 97 100 100 100 100 100 100 100 100 97 90 81 84 74 90 94 100 100 100 100
23 97 100 100 100 100 100 100 100 100 100 100 100 100 97 84 68 52 55 77 77 65 77 94 97 97 97 97 97 100 100 97 100 87 81 84 87 94 100 100 100 100 97
45 97 100 100 100 100 100 100 100 100 100 100 100 100 90 87 77 61 58 71 77 65 61 81 84 94 90 94 97 97 100 100 100 97 77 77 90 94 100 100 100 100 97
55 87 100 100 100 100 100 100 100 100 100 100 100 100 97 90 68 48 45 52 58 58 68 77 87 81 81 81 90 97 100 100 97 94 84 77 81 94 100 100 100 100 97
45 94 100 100 100 100 100 100 100 100 100 97 97 100 100 87 68 42 23 29 39 52 45 74 77 77 68 58 68 87 100 100 97 90 90 87 94 97 100 100 100 100 100
58 90 100 100 100 100 100 100 100 100 97 94 97 100 100 94 71 35 13 10 16 23 23 61 71 45 29 39 58 84 100 100 74 87 97 94 94 100 100 100 100 100 100
65 94 100 100 100 100 100 100 100 100 97 94 100 100 100 94 81 35 6 0 6 10 29 71 68 16 13 16 26 45 90 100 74 71 90 97 100 100 100 100 100 100 100
55 87 100 100 100 100 100 100 100 100 97 90 100 100 100 97 81 29 10 0 3 35 52 48 35 10 6 0 0 32 77 97 16 58 77 90 97 100 100 100 100 100 100
10 58 87 52 48 71 90 100 100 100 97 94 100 100 100 97 71 26 0 3 6 29 29 23 16 6 0 0 0 29 81 61 3 19 45 87 97 97 97 100 100 100 100
3 10 19 19 10 6 16 90 100 100 100 100 100 100 100 23 13 10 0 3 13 10 3 10 6 0 0 0 10 45 6 0 0 6 16 71 81 77 90 97 100 100 100
0 0 3 6 0 0 3 19 6 52 52 61 48 84 0 0 0 0 0 6 3 3 3 6 0 0 0 0 0 0 0 0 0 13 29 77 42 52 71 81 84 97 100
3 0 0 3 0 0 0 0 0 0 0 0 3 3 0 0 0 0 0 6 0 0 0 0 0 0 0 0 0 0 0 0 0 10 71 97 77 71 68 81 87 90 97
0 0 0 0 0 0 0 0 0 0 0 0 0 0 0 0 0 0 0 0 0 0 0 0 0 0 0 0 0 0 0 0 0 6 90 100 100 97 90 90 100 97 100
0 0 0 0 0 0 0 0 0 0 0 0 0 0 0 0 0 0 0 0 0 0 0 0 0 0 0 0 0 0 0 0 0 0 35 100 100 100 100 100 97 97 97
0 0 3 0 0 0 0 0 0 0 0 0 0 0 0 0 0 0 0 0 0 0 0 0 0 0 0 0 0 0 0 0 0 0 10 77 100 100 100 97 90 90 77
0 0 3 0 0 0 0 0 0 0 0 0 0 0 0 0 0 0 0 0 0 0 0 0 0 0 0 0 0 0 0 0 0 0 0 6 45 97 94 94 84 65 61
0 0 3 6 3 3 0 0 0 0 0 0 0 0 0 0 0 0 0 0 0 0 0 0 0 0 0 0 0 0 0 0 0 0 0 0 0 26 68 77 71 55 42
0 0 6 6 3 3 3 0 0 0 0 0 0 0 0 0 0 0 0 0 0 0 0 0 0 0 0 0 0 0 0 0 0 0 0 0 0 0 10 19 26 32 42
0 0 6 3 0 0 0 0 0 0 0 0 0 0 0 0 0 0 0 0 0 0 0 0 0 0 0 0 0 0 0 0 0 0 0 0 0 0 0 0 0 3 26
0 0 0 0 3 3 0 0 0 0 0 0 0 0 0 0 0 0 0 0 0 0 0 0 0 0 0 0 0 0 0 0 0 0 0 0 0 0 0 0 0 0 0
0 0 0 0 0 6 6 0 0 0 0 0 0 0 0 0 0 0 0 0 0 0 0 0 0 0 0 0 0 0 0 0 0 0 0 0 0 0 0 0 0 0 0
0 0 13 29 48 58 45 6 0 0 0 0 0 0 0 0 0 0 0 0 0 0 0 0 0 0 0 0 0 0 0 0 0 0 0 0 0 0 0 0 0 0 0
0 13 29 71 74 71 71 32 23 10 0 0 0 0 0 0 0 0 0 0 0 0 0 0 0 0 0 0 0 0 0 0 0 0 0 0 0 0 0 0 0 0 0
13 26 52 71 81 74 74 74 48 10 0 0 0 0 0 0 0 0 0 0 0 0 0 0 0 0 0 0 0 0 0 0 0 0 0 0 0 0 0 0 0 0 0
23 39 45 55 55 55 68 68 61 23 6 6 0 0 0 0 0 0 0 0 0 0 0 0 0 0 0 0 0 0 0 0 0 0 0 0 0 0 0 0 0 0 0

GEFSSE_con_cape1000_030.txt.gz
Probability
0 6 100 100 100 100 100 100 100 100 100 100 100 100 100 100 97 100 100 100 100 100 100 100 100 100 100 100 100 100 100 100 100 100 100 100 100 100 100 100 100 100 100
0 35 100 100 100 100 100 100 100 100 100 100 97 97 97 94 87 84 84 94 97 94 97 97 100 100 100 100 100 100 100 100 100 100 100 100 100 100 100 100 100 100 100
10 81 100 100 100 100 100 100 100 100 100 100 100 90 84 71 71 81 81 68 68 87 84 94 94 100 100 100 100 100 100 97 100 100 90 87 100 100 97 97 100 100 100
32 97 97 100 100 100 100 100 100 100 100 100 97 87 77 61 58 65 65 52 55 61 68 87 94 97 100 100 100 100 100 100 94 90 74 84 90 94 94 94 97 94 97
42 94 94 100 100 100 100 100 100 100 100 100 94 90 74 58 32 35 35 45 29 35 45 74 81 94 97 100 100 100 97 97 97 84 71 71 87 100 100 94 94 90 94
55 77 94 100 100 100 100 100 100 100 100 100 97 94 77 42 32 29 16 26 13 13 26 55 68 71 77 94 97 94 94 97 94 74 71 77 94 100 100 97 90 94 90
35 77 94 100 100 100 100 100 100 100 100 100 100 94 84 42 23 19 13 13 13 13 10 16 45 52 65 74 87 94 97 97 68 71 71 81 90 97 97 100 97 97 97
23 84 94 100 100 100 100 97 100 100 100 100 100 94 81 58 23 16 6 6 3 6 3 10 19 16 32 45 68 87 94 94 90 81 74 81 94 100 100 100 97 97 100
16 74 97 97 100 100 100 100 100 100 100 100 100 100 90 74 39 10 3 0 3 3 6 3 0 6 3 13 48 81 94 97 26 58 87 87 100 100 100 100 97 100 100
13 68 77 71 74 77 90 100 100 100 100 100 100 100 97 81 35 13 6 0 0 0 0 0 0 0 0 3 42 81 90 65 10 39 61 90 100 97 97 100 100 100 97
6 19 35 32 23 16 29 90 97 97 97 100 100 100 87 6 0 6 0 0 0 0 0 0 0 0 0 3 45 74 26 6 6 10 32 87 97 97 97 100 100 100 97
3 13 10 6 3 0 19 42 23 61 45 26 19 42 0 0 0 0 0 0 0 0 0 0 0 0 0 0 6 6 0 3 3 0 16 87 77 77 87 94 100 100 97
0 6 10 0 0 0 0 0 0 0 0 0 0 0 0 0 0 0 0 0 0 0 0 0 0 0 0 0 0 0 0 0 0 6 19 84 68 58 65 71 87 100 100
0 0 0 0 0 0 0 0 0 0 0 0 0 0 0 0 0 0 0 0 0 0 0 0 0 0 0 0 0 0 0 0 0 3 29 97 97 74 71 71 84 84 90
0 0 0 3 0 0 0 0 0 0 0 0 0 0 0 0 0 0 0 0 0 0 0 0 0 0 0 0 0 0 0 0 0 0 23 100 100 100 97 97 94 90 97
0 0 0 0 0 0 0 0 0 0 0 0 0 0 0 0 0 0 0 0 0 0 0 0 0 0 0 0 0 0 0 0 0 0 0 45 100 100 100 94 90 84 84
0 0 0 0 0 0 0 0 0 0 0 0 0 0 0 0 0 0 0 0 0 0 0 0 0 0 0 0 0 0 0 0 0 0 0 0 19 94 90 90 84 77 71
0 0 3 10 0 0 0 0 0 0 0 0 0 0 0 0 0 0 0 0 0 0 0 0 0 0 0 0 0 0 0 0 0 0 0 0 0 0 52 71 65 55 42
0 0 6 13 0 0 0 0 0 0 0 0 0 0 0 0 0 0 0 0 0 0 0 0 0 0 0 0 0 0 0 0 0 0 0 0 0 0 3 10 35 48 42
0 0 0 6 3 3 3 0 0 0 0 0 0 0 0 0 0 0 0 0 0 0 0 0 0 0 0 0 0 0 0 0 0 0 0 0 0 0 0 0 0 3 29
0 0 0 13 6 3 3 3 0 0 0 0 0 0 0 0 0 0 0 0 0 0 0 0 0 0 0 0 0 0 0 0 0 0 0 0 0 0 0 0 0 0 0
0 0 0 10 16 6 6 3 0 0 0 0 0 0 0 0 0 0 0 0 0 0 0 0 0 0 0 0 0 0 0 0 0 0 0 0 0 0 0 0 0 0 0
0 0 3 10 13 6 6 3 0 0 0 0 0 0 0 0 0 0 0 0 0 0 0 0 0 0 0 0 0 0 0 0 0 0 0 0 0 0 0 0 0 0 0
0 0 0 3 6 6 6 6 0 0 0 0 0 0 0 0 0 0 0 0 0 0 0 0 0 0 0 0 0 0 0 0 0 0 0 0 0 0 0 0 0 0 0
0 0 0 3 3 6 6 6 3 3 0 0 0 0 0 0 0 0 0 0 0 0 0 0 0 0 0 0 0 0 0 0 0 0 0 0 0 0 0 0 0 0 0
10 13 10 13 3 3 6 6 3 3 3 0 0 0 0 0 0 0 0 0 0 0 0 0 0 0 0 0 0 0 0 0 0 0 0 0 0 0 0 0 0 0 0

GEFSSE_con_cape1000_036.txt.gz
Probability
13 71 100 100 100 100 100 100 100 100 100 100 100 100 97 94 94 90 100 100 100 100 100 100 100 100 100 97 97 100 100 100 97 100 97 97 100 100 100 100 100 100 97
10 84 100 100 100 100 100 100 100 100 100 100 100 97 87 87 81 87 87 94 94 94 94 100 100 100 97 97 97 100 100 97 100 100 97 97 97 100 100 100 100 100 100
32 100 100 100 100 100 100 100 100 100 100 100 97 90 87 74 55 48 45 58 74 74 87 90 94 100 100 100 97 100 100 97 97 90 87 94 94 100 100 100 100 100 100
26 100 100 100 100 100 100 100 100 100 100 97 100 90 68 58 45 45 45 45 58 68 74 77 87 87 90 97 100 97 100 97 97 84 81 84 90 90 97 100 100 97 100
16 97 100 100 100 100 100 97 100 100 100 97 90 81 52 45 48 32 32 29 35 48 65 71 81 81 87 94 100 100 94 94 90 74 90 94 97 90 94 94 97 97 97
13 77 100 100 100 100 100 97 97 100 100 94 90 74 55 42 29 23 23 23 23 32 45 58 74 71 77 81 90 94 94 94 87 81 84 94 94 94 90 90 97 90 87
0 52 100 100 100 100 97 100 97 97 97 90 87 81 52 42 26 19 16 10 13 13 26 42 58 48 65 81 90 94 94 84 84 87 84 87 94 94 97 94 90 94 90
0 23 94 100 100 100 97 97 94 94 97 97 94 84 55 45 23 6 16 13 10 6 10 16 42 39 45 71 84 87 87 84 74 71 94 94 90 90 94 94 90 90 94
0 16 81 94 94 97 100 97 97 97 97 97 97 90 71 48 16 6 6 3 6 6 3 3 3 10 29 61 81 81 87 81 87 81 58 90 90 90 90 94 87 94 90
0 3 26 65 74 84 94 100 97 97 100 100 100 97 81 55 23 10 6 3 0 0 0 0 3 6 16 61 74 74 77 71 58 45 74 87 90 90 90 90 90 87 84
0 0 3 32 29 55 71 87 97 100 100 100 100 90 87 48 10 6 0 0 0 0 0 0 0 3 10 52 74 77 48 13 19 26 77 94 90 87 87 87 87 87 84
3 0 0 10 23 23 48 87 94 97 100 97 87 77 71 26 3 0 0 0 0 0 0 0 0 3 0 3 13 26 6 3 3 13 65 84 71 81 81 77 90 90 90
13 10 3 13 10 10 74 94 100 97 100 77 65 68 68 6 0 0 0 0 0 0 0 0 0 0 0 0 0 3 3 3 6 3 68 68 58 55 65 65 84 94 90
3 13 16 13 13 13 42 65 90 97 100 81 65 23 29 6 0 0 0 0 0 0 0 0 0 0 0 0 3 3 6 0 6 23 87 77 81 58 39 52 71 77 81
3 19 16 19 13 19 35 65 61 74 74 61 74 19 10 3 0 0 0 0 0 0 0 0 0 0 0 3 3 3 3 10 0 10 81 87 87 90 87 77 84 74 84
0 19 29 32 26 26 55 81 61 55 77 39 48 16 0 0 0 0 0 0 0 0 0 0 0 0 0 0 3 3 0 0 0 16 39 84 94 90 87 84 90 87 84
0 3 23 45 35 19 19 29 42 55 52 42 45 6 0 0 0 0 0 0 0 0 0 0 0 0 0 0 0 3 0 0 3 13 19 48 74 90 77 77 77 74 68
0 6 13 58 45 45 55 61 58 48 39 39 29 16 3 0 0 3 3 0 0 0 0 0 0 0 0 0 0 0 0 3 3 6 10 19 42 52 74 71 68 58 45
16 29 45 87 77 74 71 77 71 61 71 55 39 42 16 3 3 13 26 13 0 0 0 0 0 0 0 3 0 0 0 0 3 3 0 3 6 19 42 45 45 55 42
10 26 74 100 100 97 100 100 100 87 74 74 58 65 23 16 6 26 71 26 6 10 16 3 0 0 10 10 0 0 0 0 0 0 0 3 0 0 0 3 6 3 29
10 16 48 87 100 100 100 97 100 100 97 94 90 71 68 48 55 81 77 58 52 52 29 6 13 3 16 3 0 6 0 0 0 0 0 0 0 0 0 0 0 3 3
6 26 42 71 94 97 94 97 97 97 97 100 100 97 90 81 90 87 90 87 87 77 39 10 23 39 16 16 19 13 3 0 0 0 0 0 0 0 0 0 0 0 0
29 16 23 52 84 90 84 87 81 90 90 81 90 94 90 94 94 94 84 87 87 74 77 68 39 32 48 6 6 16 3 13 6 0 0 0 0 0 0 0 0 0 0
23 26 29 45 48 74 81 71 68 61 55 58 71 81 87 87 87 94 87 90 84 84 84 71 29 48 48 19 0 6 0 10 0 0 0 0 0 0 0 0 0 0 0
19 32 42 48 45 65 71 58 42 32 29 35 42 55 71 81 84 87 84 94 84 87 68 71 52 52 48 58 19 3 3 0 0 0 0 0 0 0 0 0 0 0 0
32 32 52 48 58 55 48 42 29 13 19 23 42 45 61 81 84 74 87 87 71 71 61 68 77 71 52 42 35 19 3 3 0 0 3 3 3 0 0 0 0 0 0